Retour au catalogue

EWS-G1

ActifMétéoGEO
NORAD 29155·PAYLOAD·🇺🇸 United States

Lancé May 24, 2006 depuis Cape Canaveral Space Force Station

Loading…

TLE

FraisSource: Space-Track

Époque: Sep 14, 2026, 22:00 UTC

1 29155U 06018A   26257.91732073 -.00000100  00000-0  00000-0 0  9993
2 29155   4.7602  75.2854 0059444 279.9155 258.0634  0.98786442 44136

Suivez EWS-G1 en temps réel avec AllMySat

Download on the App Store